ECMWFNIL_sfc_dewp_000.txt.gz
Dewpoint
66 66 67 67 66 66 66 65 65 65 66 67 67 67 67 67 68 67 67 67 67 67 67 67 67 67 67 68 68 69 68 69 70 71 71 70 69 69 68 68 69 69
65 66 67 66 66 66 65 65 65 65 65 65 66 66 66 67 67 67 67 67 67 67 67 67 68 68 68 68 69 69 69 69 69 70 70 70 70 70 70 69 69 69
65 65 65 65 65 64 65 65 65 65 65 65 66 66 66 66 66 67 67 66 67 67 67 67 67 67 67 67 68 68 67 68 69 70 70 70 70 69 69 69 68 68
64 64 64 64 64 64 65 65 65 65 65 65 65 65 66 66 67 66 66 67 66 66 66 66 66 66 67 67 67 67 68 68 68 68 68 69 70 69 69 69 68 68
64 64 63 63 64 64 64 64 64 64 64 65 65 66 66 66 65 65 65 65 65 65 65 66 66 66 66 66 67 67 66 66 67 67 68 68 68 69 68 68 67 66
62 63 64 63 63 63 63 64 64 64 64 64 64 65 65 65 65 65 65 65 65 65 65 65 65 66 66 67 66 66 66 66 66 66 67 67 67 68 68 67 67 66
61 62 62 62 62 63 63 63 63 64 64 64 65 64 65 65 65 65 65 65 65 65 65 65 65 65 66 67 66 66 66 66 66 66 66 66 66 67 67 67 67 66
61 61 62 62 62 62 62 63 63 63 63 64 64 64 65 65 65 65 65 65 65 66 66 65 65 65 65 66 65 66 66 66 66 65 65 65 66 66 66 67 67 66
61 61 61 61 61 62 62 62 62 62 63 63 63 64 65 65 65 65 65 65 65 66 66 66 66 65 66 66 66 65 65 65 66 66 66 64 65 65 65 66 66 66
61 61 61 61 61 62 62 62 62 62 63 63 64 64 64 65 66 66 65 64 65 65 65 65 65 65 65 65 64 65 65 65 65 65 65 65 65 65 65 66 66 66
61 61 61 61 61 61 62 62 62 62 63 63 63 63 64 65 66 66 65 64 64 64 64 64 65 64 63 63 63 64 64 65 65 65 65 65 65 65 65 65 66 66
60 61 61 61 61 62 63 62 63 63 63 63 63 63 64 65 65 66 65 65 64 64 64 64 63 63 63 63 63 64 65 65 64 65 66 65 65 65 66 65 65 67
60 60 61 60 61 62 63 63 63 63 62 63 63 64 64 64 65 65 66 65 64 64 63 63 63 63 63 64 65 64 64 63 64 64 65 65 64 65 65 66 66 66
59 60 60 61 62 63 63 63 63 62 62 63 63 63 64 64 64 65 65 65 65 65 65 65 64 63 63 63 64 64 63 62 62 63 64 64 65 65 65 65 65 66
59 60 61 62 62 63 63 62 62 62 62 62 63 63 64 64 64 64 63 64 65 65 64 64 64 63 64 63 62 62 62 61 61 61 62 63 64 65 65 65 65 66
60 60 61 61 61 61 62 62 61 62 62 62 62 63 63 64 63 63 63 64 64 64 64 64 63 63 61 58 57 62 61 60 60 60 61 62 63 64 65 66 65 65
59 60 60 61 61 61 61 61 61 61 61 62 62 63 63 63 64 63 63 64 64 64 63 63 63 62 59 58 59 58 59 60 60 60 61 62 62 63 64 65 65 66
60 60 60 60 60 60 60 60 61 61 61 62 62 62 63 63 63 63 63 63 64 64 63 63 62 60 58 58 59 57 56 61 61 61 62 62 62 63 64 65 65 66
59 59 59 59 60 60 60 60 60 61 61 61 61 62 62 62 62 62 62 63 64 64 62 61 60 59 58 57 57 56 57 60 63 63 62 61 63 63 64 65 66 66
59 59 59 59 59 59 60 60 60 60 61 61 62 62 61 61 62 62 63 63 64 64 64 62 61 59 57 57 56 55 56 60 62 61 61 60 59 59 60 59 60 61
58 58 58 58 59 59 59 59 60 60 60 61 62 62 61 62 62 62 62 63 64 64 64 64 62 57 56 56 55 54 55 59 61 60 60 59 59 58 58 58 57 57
58 58 58 58 58 59 59 59 59 60 60 60 62 62 62 62 62 62 62 62 63 63 64 64 62 57 56 55 54 54 56 62 61 60 58 58 58 57 58 57 57 58
58 58 58 58 58 59 58 59 59 59 60 62 62 62 61 61 61 61 62 62 62 63 64 64 62 60 56 54 53 53 56 62 61 59 58 58 58 58 58 57 57 57
58 58 58 58 58 58 58 58 59 60 60 62 62 61 61 61 61 61 61 62 63 63 64 63 61 59 56 53 52 53 54 62 61 59 58 57 57 57 57 57 57 58
58 58 58 58 58 58 58 58 59 60 62 62 61 61 61 61 62 61 60 60 61 62 63 63 61 59 58 55 52 52 56 61 62 60 58 57 57 56 56 57 57 57
58 60 60 59 58 58 58 59 61 62 61 60 60 59 60 61 61 60 58 59 60 62 63 63 63 63 63 56 53 52 53 58 61 60 58 57 57 57 56 56 56 56

ECMWFNIL_sfc_dewp_003.txt.gz
Dewpoint
70 71 69 69 68 67 67 67 66 66 66 66 65 66 66 67 68 67 67 67 68 67 67 67 67 68 68 69 69 69 70 69 67 67 68 70 69 69 67 68 67 68
70 70 70 69 69 69 68 67 66 66 66 66 66 66 66 67 66 67 66 66 66 66 66 66 67 67 67 66 67 68 69 68 67 68 67 68 69 70 69 69 69 69
68 68 67 67 65 65 66 67 67 67 66 66 66 66 66 66 66 67 67 66 66 66 66 66 66 66 66 66 66 67 66 68 67 69 69 69 68 69 67 67 68 68
68 69 67 66 65 65 66 66 66 67 66 66 65 66 66 66 67 66 67 67 66 66 65 65 65 65 65 65 66 66 66 67 67 69 67 67 68 69 68 69 68 68
68 68 67 66 65 67 67 66 65 65 65 66 66 67 67 67 66 66 66 66 66 65 64 64 64 64 65 65 65 65 65 64 65 66 67 67 66 65 68 69 67 67
68 67 67 66 67 67 66 66 65 65 65 64 66 66 66 67 66 66 67 66 65 64 64 65 64 64 64 65 65 65 64 63 63 64 63 64 65 67 66 67 67 65
65 66 66 66 66 67 67 67 67 66 65 66 66 67 67 66 67 67 67 66 66 65 65 65 65 64 64 65 65 64 64 65 64 63 63 64 65 66 66 66 67 66
66 66 66 66 67 67 67 67 67 66 66 66 66 66 67 66 67 67 67 67 67 67 66 65 66 66 65 65 65 64 63 63 63 63 64 64 64 64 65 65 66 66
67 66 67 67 67 67 66 65 65 66 66 66 66 65 66 66 66 66 67 67 67 67 66 66 65 65 65 65 64 64 63 62 62 62 62 62 62 63 63 63 64 66
67 66 67 65 64 65 66 65 64 65 66 66 66 66 65 66 66 66 67 66 66 66 66 66 65 65 64 64 65 64 64 63 62 61 62 61 61 62 62 63 64 64
65 65 65 65 65 63 63 62 60 61 65 66 66 66 66 66 66 67 67 66 64 65 66 66 65 64 63 64 64 65 65 63 63 64 64 63 63 64 62 63 63 63
64 64 64 64 65 64 64 64 65 67 67 65 66 65 65 66 67 67 66 66 66 67 67 67 65 65 64 64 63 63 63 63 63 62 63 63 63 63 63 63 62 63
62 63 65 64 65 66 67 66 65 63 62 64 64 63 63 64 66 67 67 67 67 66 67 66 65 65 64 64 64 64 64 63 62 61 61 61 62 62 62 62 63 63
63 64 65 66 66 67 67 67 67 67 67 67 66 64 63 64 64 65 66 66 67 66 67 67 66 64 64 65 65 65 64 62 62 61 61 61 61 62 62 62 63 63
65 65 66 67 67 67 67 68 67 67 67 66 66 66 65 65 66 66 66 66 66 67 66 66 65 64 64 64 64 64 63 61 61 61 61 61 61 61 62 62 63 63
66 67 67 67 67 66 67 67 66 66 66 66 65 65 66 67 67 67 66 65 66 66 66 65 65 64 63 56 57 62 62 61 61 61 61 60 60 60 59 59 61 63
67 67 67 66 66 66 66 66 66 66 65 66 66 66 67 67 67 67 65 65 65 65 65 64 64 64 59 57 58 58 60 62 62 61 60 60 59 58 58 58 58 59
66 66 66 66 66 66 66 66 65 65 65 66 66 66 66 67 67 66 66 66 66 65 65 64 64 61 58 57 58 58 57 61 62 61 60 59 58 58 58 57 58 58
66 66 65 66 66 65 66 65 65 65 65 65 65 65 66 66 67 66 66 66 66 66 65 64 64 62 58 57 57 57 57 60 62 61 60 59 58 57 57 57 57 58
66 66 65 65 66 66 65 65 65 65 65 65 65 66 66 66 66 67 66 67 66 66 66 64 64 60 57 56 56 55 56 59 61 60 59 59 58 57 57 57 57 57
65 65 65 65 65 65 65 65 65 65 65 65 64 64 65 66 66 66 65 65 65 65 66 65 65 59 58 56 55 54 55 58 62 60 60 60 59 58 57 57 57 57
65 65 65 65 65 65 64 64 64 65 64 65 65 65 66 67 67 66 65 64 64 65 65 65 65 59 56 55 54 54 55 63 62 61 60 59 59 59 58 58 58 58
65 64 64 65 64 64 63 63 63 63 64 65 65 65 64 65 65 65 65 64 64 65 66 66 65 63 56 53 54 53 56 63 61 60 60 60 60 60 60 59 58 58
65 65 64 64 64 63 63 62 62 63 64 65 64 63 63 63 64 65 65 65 64 63 61 63 62 62 56 53 53 54 54 63 61 61 60 60 60 60 60 59 59 58
64 64 64 63 63 63 63 62 63 63 63 64 63 63 63 65 65 65 64 64 61 61 64 63 60 60 58 54 54 54 58 64 62 61 60 60 60 59 60 59 59 58
65 65 65 64 64 64 64 63 64 63 62 62 62 61 60 61 64 63 63 60 59 62 60 62 62 62 65 57 54 53 54 62 63 62 60 60 59 59 59 59 59 59

ECMWFNIL_sfc_dewp_006.txt.gz
Dewpoint
66 66 64 64 64 65 65 65 64 65 66 65 64 65 64 65 66 66 65 65 66 66 66 66 66 67 67 67 67 68 68 68 69 68 68 69 67 67 66 67 69 70
65 65 65 64 65 65 65 65 65 65 65 65 65 64 65 65 64 64 65 65 65 65 66 66 66 67 66 65 66 66 67 68 67 68 68 68 67 68 67 68 68 70
65 64 63 63 62 62 63 64 66 65 64 64 65 65 63 64 64 65 66 65 65 65 67 66 65 65 65 65 66 66 66 67 67 67 68 68 68 68 67 66 68 68
65 65 63 63 63 62 63 64 64 65 65 64 63 63 63 65 65 65 66 66 66 66 65 64 65 65 65 65 65 65 66 66 66 67 66 66 67 68 68 68 68 67
64 64 64 63 63 63 64 64 64 64 64 64 64 64 64 65 65 64 65 65 65 65 63 63 64 63 64 64 64 64 65 64 63 64 64 64 65 66 66 66 67 67
65 64 64 63 63 63 63 62 63 63 64 63 64 63 63 64 64 64 64 64 62 62 63 63 63 63 63 64 65 64 63 61 62 62 62 63 62 63 62 63 64 65
64 64 64 63 63 63 63 63 64 64 63 63 65 64 64 64 64 65 65 65 65 66 65 66 66 64 65 65 65 64 64 64 63 63 63 62 62 63 63 63 63 63
64 63 63 62 62 62 62 62 62 62 63 64 63 64 64 63 65 64 65 65 65 66 67 67 67 66 64 65 65 65 65 65 64 64 63 63 64 63 63 61 62 62
64 63 62 62 62 61 59 58 57 59 61 62 62 62 63 64 63 64 65 66 66 67 67 68 67 66 65 63 65 66 65 64 64 64 63 63 62 61 62 63 65 64
64 63 62 60 58 59 58 57 56 57 58 59 61 60 61 64 64 65 65 66 67 67 67 68 67 66 66 65 65 65 64 63 64 64 63 61 59 60 60 61 61 61
63 62 60 60 59 56 57 55 53 54 57 59 60 60 62 62 63 65 66 67 67 67 67 67 66 66 66 66 66 65 64 63 64 63 62 61 59 59 59 60 61 62
62 61 60 59 58 58 58 58 58 59 57 54 56 55 58 59 61 61 65 66 66 67 67 67 67 67 67 67 65 65 64 64 63 62 61 60 60 59 59 60 61 61
61 60 60 58 59 59 59 57 56 54 53 55 54 54 54 56 58 60 63 66 67 67 66 66 67 67 68 67 66 65 64 63 62 62 61 60 60 59 58 59 60 60
61 60 60 60 60 60 60 59 59 59 59 59 57 55 53 55 55 59 61 63 65 65 66 67 68 68 68 67 66 64 64 63 62 62 61 60 60 59 59 58 58 58
61 60 60 60 60 60 60 60 61 61 60 59 58 58 57 57 59 60 62 63 64 65 67 67 67 67 67 67 64 63 63 61 62 61 60 60 59 59 58 58 58 58
62 62 61 61 60 60 61 61 61 60 58 58 57 56 58 59 62 63 62 62 62 63 65 67 67 67 65 61 61 63 62 62 61 61 61 60 60 57 57 57 57 57
62 61 62 61 61 61 62 62 62 60 59 58 58 59 60 62 63 62 61 61 62 63 64 66 66 66 63 60 60 60 63 62 61 60 60 61 60 58 57 56 57 57
61 61 61 60 61 62 62 63 63 60 59 59 58 58 60 60 60 61 62 63 63 63 63 64 65 65 60 59 60 60 60 64 61 60 60 61 60 58 56 57 57 57
63 61 61 61 61 62 63 63 64 60 59 58 57 58 59 60 61 60 61 62 63 63 62 61 61 62 59 59 59 59 59 61 62 61 60 60 60 60 58 58 58 57
62 61 61 61 61 62 63 64 63 59 58 57 56 58 59 59 59 60 61 62 61 61 61 62 62 61 60 59 58 58 58 60 63 60 60 60 60 60 58 59 59 59
62 61 61 61 62 63 64 63 61 59 59 57 56 57 57 58 59 60 60 60 59 57 58 58 57 60 59 59 57 56 57 58 63 61 61 61 61 61 61 60 60 60
61 61 62 62 63 64 63 62 59 58 58 58 59 58 58 58 59 59 60 61 60 59 57 57 55 58 58 58 57 56 57 63 61 61 62 61 61 61 62 62 61 61
60 60 61 61 61 62 62 60 57 57 57 59 59 58 55 54 56 54 58 59 59 59 57 58 58 59 56 56 56 55 57 63 59 59 61 61 62 62 63 62 61 61
61 61 60 60 61 61 60 59 56 56 57 59 58 56 55 54 54 57 60 60 57 57 55 56 54 57 54 53 53 54 58 64 62 59 60 62 63 64 64 63 63 62
60 60 60 60 60 59 59 58 57 58 59 63 61 58 58 60 57 58 59 61 59 55 58 56 57 55 53 52 52 54 59 65 63 62 62 62 62 64 64 63 63 63
61 62 62 60 60 60 60 60 63 62 61 62 60 57 56 57 57 58 58 59 60 60 57 55 58 60 58 53 52 53 54 65 65 63 62 61 62 64 64 62 64 63

ECMWFNIL_sfc_dewp_009.txt.gz
Dewpoint
64 65 64 64 64 64 64 64 63 63 63 63 63 64 65 65 66 66 66 66 66 65 65 66 66 67 66 66 66 66 66 66 67 67 66 67 67 68 66 66 68 69
65 65 65 64 64 64 64 63 63 64 64 65 65 65 66 66 65 65 65 65 66 65 65 65 65 65 65 65 65 65 66 67 68 67 66 66 67 67 66 67 67 67
65 65 65 64 63 62 61 62 63 64 64 65 65 65 64 64 64 65 66 65 65 65 65 66 64 64 64 64 64 65 65 66 67 66 66 67 66 66 66 65 65 65
65 64 63 63 63 62 63 62 63 64 64 64 63 63 63 64 65 64 64 65 65 65 64 64 64 63 63 64 64 64 64 65 64 65 64 64 64 64 64 64 64 64
65 65 65 64 63 63 62 62 62 62 63 63 63 64 64 65 65 64 64 63 64 63 63 62 62 62 63 63 63 64 63 62 62 62 61 62 63 63 62 63 63 62
65 64 65 63 63 64 63 62 62 62 62 62 63 63 63 63 64 64 63 63 62 61 62 62 63 63 62 63 64 65 64 62 62 64 64 65 64 64 63 64 63 63
65 65 65 64 64 63 63 63 63 63 62 63 63 63 63 63 63 64 64 64 63 65 64 65 65 65 65 64 64 64 64 64 65 64 65 64 64 64 64 62 60 59
65 63 64 64 63 63 63 62 62 61 62 63 62 63 63 61 63 62 63 63 63 64 65 66 66 66 65 64 63 62 63 64 63 63 63 64 64 63 60 59 59 58
64 63 63 63 63 61 59 59 57 58 59 59 60 60 62 62 61 62 63 64 65 65 66 67 67 66 66 66 65 65 66 64 63 63 63 63 62 60 59 59 59 59
64 63 62 61 59 60 59 58 56 56 56 58 58 57 57 61 61 62 62 63 63 64 66 68 67 67 67 66 65 65 65 66 64 64 63 62 61 60 59 59 59 60
63 62 62 62 60 56 57 55 52 52 56 56 57 58 60 59 60 60 61 62 61 65 67 67 67 66 66 66 65 64 64 65 64 64 63 62 61 60 59 59 59 59
63 62 61 60 59 58 57 58 57 57 56 54 53 53 56 55 57 57 58 60 61 62 67 68 68 67 67 66 65 63 64 65 64 63 62 61 60 59 58 59 59 59
61 61 61 59 59 60 60 58 56 54 54 57 56 56 55 55 54 57 58 59 60 60 64 65 66 66 66 66 67 66 66 65 64 64 62 60 59 58 58 58 57 57
60 60 60 60 59 61 60 59 59 60 60 60 60 58 55 55 54 56 56 57 59 60 64 66 66 66 65 65 65 66 66 64 64 63 61 59 59 59 58 56 56 56
61 61 61 60 60 61 61 61 61 61 61 61 61 59 57 56 57 56 58 59 60 62 65 67 66 64 63 64 65 66 66 63 62 61 59 58 59 59 58 57 57 57
63 63 62 61 60 61 62 61 60 61 61 61 60 59 59 59 60 60 58 59 60 61 63 65 65 64 66 64 64 64 63 62 61 61 59 58 59 59 58 57 57 57
63 63 63 62 62 62 62 62 62 62 63 63 61 60 60 60 59 59 57 57 59 61 61 62 62 64 63 61 61 62 62 62 62 61 59 58 57 59 58 58 58 59
62 62 62 62 62 62 62 62 62 63 64 63 61 60 60 59 58 58 59 59 61 61 61 62 61 63 60 60 61 61 62 63 62 61 58 57 57 58 59 59 59 60
63 62 62 62 62 62 62 62 63 63 64 63 60 59 59 59 59 59 59 60 61 62 62 61 62 61 59 59 60 59 60 61 62 62 59 57 57 58 59 60 61 60
62 62 62 62 62 62 62 62 62 63 64 61 59 59 59 58 58 60 61 60 61 63 63 62 61 60 59 59 59 58 59 60 63 63 61 58 59 59 60 61 61 61
61 61 62 62 62 62 63 62 64 65 63 60 57 57 58 60 60 60 59 59 63 62 63 62 60 58 57 57 57 57 58 60 63 63 62 61 62 62 62 61 62 62
61 61 62 62 61 62 62 62 64 65 62 60 59 57 59 59 58 58 59 58 59 61 61 60 58 57 56 56 56 57 58 63 64 65 62 60 60 60 61 62 63 63
61 60 61 61 61 60 60 60 62 64 61 59 58 59 58 57 58 57 59 58 59 59 59 59 58 58 56 54 55 56 58 64 64 64 63 60 60 60 61 62 64 65
61 61 61 60 60 58 58 59 60 61 59 59 58 59 56 55 57 57 58 58 58 59 56 57 55 56 55 54 54 55 58 62 61 62 63 63 61 61 61 63 65 63
60 61 61 60 59 58 58 58 59 60 59 60 59 59 58 58 57 57 57 58 56 56 60 59 56 56 56 55 54 54 57 62 61 63 63 62 61 62 60 62 64 64
61 62 62 60 59 58 59 59 59 59 59 59 60 59 56 54 55 56 56 57 57 57 56 57 59 60 60 56 54 53 55 61 63 62 63 63 62 58 60 60 58 59

ECMWFNIL_sfc_dewp_012.txt.gz
Dewpoint
68 69 68 67 70 68 67 67 66 67 68 68 68 68 70 69 70 69 68 69 69 69 69 69 70 69 68 69 69 69 68 68 68 69 68 68 67 67 66 66 67 68
68 67 68 69 70 69 69 68 68 67 68 69 69 70 70 70 68 68 69 68 68 68 69 68 69 69 69 68 69 68 69 68 68 67 68 67 67 67 66 66 65 67
67 68 67 66 66 66 65 66 68 67 68 68 68 68 68 67 68 68 69 68 68 68 68 68 68 68 68 68 69 68 67 68 67 67 68 67 68 66 66 64 65 64
68 68 67 66 67 65 66 67 68 68 68 68 68 67 66 66 67 67 68 67 68 68 68 67 67 67 68 68 68 69 67 68 67 67 67 67 67 66 66 66 65 64
68 68 68 67 67 68 68 65 65 65 66 68 66 68 69 69 69 67 67 67 68 66 66 67 67 66 68 67 68 67 68 68 67 68 67 66 67 66 65 66 66 63
69 69 69 68 68 68 67 66 66 65 65 62 67 66 67 67 68 66 66 65 63 63 65 65 66 66 66 67 68 67 67 66 67 67 67 66 66 66 65 66 64 62
67 67 66 67 66 66 67 67 67 66 65 65 67 67 67 66 66 67 67 66 65 66 66 67 67 67 68 68 68 67 67 67 66 66 66 65 66 66 65 64 64 63
67 66 67 68 66 67 67 66 66 66 67 68 65 67 67 65 66 66 66 66 65 66 67 66 67 68 67 67 67 67 66 65 66 66 66 65 66 65 65 63 63 63
68 67 67 67 66 66 62 61 61 64 64 64 63 64 67 67 66 66 67 67 66 66 67 67 67 67 67 67 68 67 67 67 66 66 66 65 64 64 63 63 62 62
67 68 65 62 61 63 61 60 59 60 61 64 65 62 63 66 66 65 65 66 66 66 66 66 67 68 68 67 66 66 66 66 66 66 65 65 64 63 62 62 61 61
65 65 64 64 63 58 58 56 55 55 61 60 62 62 63 64 67 68 67 67 65 66 66 66 66 68 67 66 66 66 66 65 65 66 65 65 65 64 61 63 62 60
66 65 63 63 63 62 60 60 60 62 59 56 62 59 64 61 63 64 64 65 66 66 65 66 67 68 67 66 65 66 67 67 65 65 64 64 64 62 61 62 61 60
64 65 65 62 65 64 64 60 57 55 54 59 58 58 57 58 59 62 64 64 64 65 65 66 67 67 68 67 66 66 65 65 65 64 64 64 63 61 59 59 59 60
64 65 65 66 65 67 65 65 63 64 66 66 63 61 58 59 58 60 61 62 63 63 64 65 66 68 67 67 66 65 65 64 65 66 64 63 62 61 60 58 59 58
66 65 66 66 66 66 65 66 65 66 66 65 65 64 62 60 60 60 62 63 63 63 65 65 67 67 66 66 66 65 65 64 65 63 62 61 61 60 60 60 60 59
67 67 67 67 66 65 66 66 64 65 64 64 65 63 64 64 65 64 60 60 62 63 64 64 65 64 66 64 63 66 65 64 64 64 63 63 62 61 59 59 59 59
67 67 67 66 66 65 66 65 65 65 66 66 66 66 66 66 64 63 58 59 60 60 61 64 65 65 62 61 61 63 65 65 65 65 64 63 62 61 60 60 60 60
66 67 67 66 66 66 66 66 65 66 66 66 66 65 66 65 63 63 63 63 62 60 62 65 66 63 60 60 61 62 63 65 64 64 63 63 62 61 60 59 59 59
67 66 66 66 66 66 66 66 66 66 66 65 65 66 65 65 65 63 63 64 63 64 64 63 65 63 60 59 60 60 61 62 64 64 63 63 63 62 61 61 61 62
66 66 65 66 66 66 66 66 65 65 65 64 64 66 65 64 63 63 63 64 65 65 65 64 64 62 59 58 58 58 59 61 63 63 64 63 63 62 62 62 62 63
66 65 65 66 66 66 66 66 66 66 65 65 64 64 64 65 64 64 64 63 63 63 65 63 63 59 58 57 56 56 57 59 62 63 64 63 63 62 62 62 63 62
65 65 65 66 66 66 66 65 66 66 66 67 66 64 63 62 63 63 62 61 62 62 60 61 58 57 56 56 55 55 57 60 62 64 64 64 63 62 62 64 63 63
64 64 65 65 65 65 65 65 66 66 67 68 66 63 61 61 62 60 62 61 61 62 62 63 61 59 56 55 55 55 57 62 64 64 63 63 62 63 64 62 62 62
65 65 65 65 65 64 64 65 64 64 65 67 65 62 59 58 60 60 61 61 60 60 55 58 58 58 54 54 55 55 58 61 63 64 63 63 63 63 64 64 63 62
65 65 65 64 65 64 63 63 64 64 65 67 63 62 61 63 61 60 59 60 56 55 62 58 57 56 55 56 55 54 59 62 64 63 63 63 63 63 64 64 63 63
65 66 66 65 64 65 66 65 64 63 62 62 63 61 60 61 60 59 58 57 56 56 55 58 57 59 61 56 55 54 55 62 64 64 62 62 62 62 62 61 61 61

ECMWFNIL_sfc_dewp_015.txt.gz
Dewpoint
66 65 67 68 66 67 67 65 67 65 65 65 65 66 66 67 68 67 68 68 68 67 68 67 67 67 68 67 67 67 67 66 66 66 66 66 65 65 65 64 64 65
66 67 68 67 70 69 68 65 64 64 65 65 66 66 67 67 67 66 67 67 67 67 67 67 67 67 67 66 66 65 65 66 65 68 65 65 65 65 65 65 64 63
64 67 66 64 65 67 65 65 65 66 63 64 66 66 66 67 67 67 66 66 66 67 67 67 67 67 67 66 66 66 65 65 65 66 66 65 65 64 64 64 63 63
65 66 66 65 64 64 67 66 65 65 64 64 65 67 67 66 64 65 66 69 66 66 66 67 66 66 66 66 66 65 65 65 65 65 64 65 65 64 64 64 65 64
65 66 66 66 66 67 66 63 64 64 65 66 66 65 66 66 66 66 66 66 66 66 65 66 66 66 66 65 65 64 65 65 66 65 64 63 64 65 65 64 64 63
67 65 66 64 66 66 65 63 62 61 62 64 64 66 65 66 66 64 65 64 64 64 64 64 65 65 66 65 65 65 65 65 65 65 64 64 65 65 65 64 63 62
66 66 65 66 66 65 65 65 65 66 63 62 63 64 65 64 63 64 65 65 65 65 64 64 64 65 66 66 66 65 65 65 65 65 64 64 65 65 65 64 63 62
66 65 65 65 64 65 65 65 64 64 64 64 63 62 64 63 63 64 65 65 64 64 64 65 65 65 66 66 65 66 65 66 65 65 64 64 64 63 64 64 62 61
65 65 64 65 64 65 64 64 64 63 64 64 64 63 64 64 63 64 64 64 64 64 64 64 65 65 65 65 65 65 65 65 66 65 65 64 64 63 62 63 62 62
65 65 65 65 64 65 64 63 63 62 63 63 62 61 61 64 65 64 64 64 64 64 64 64 64 65 66 66 65 64 64 64 64 64 65 65 64 63 62 62 61 60
65 66 64 64 63 63 62 61 60 59 61 62 62 62 62 62 63 64 63 63 63 63 63 63 64 65 66 65 65 65 65 65 64 64 64 63 64 63 65 62 61 60
65 64 63 63 63 62 62 60 60 61 59 59 61 60 61 61 60 62 63 62 64 64 64 64 64 66 65 65 64 65 65 65 65 64 64 63 63 63 62 61 61 60
64 63 63 63 63 62 62 61 60 57 56 61 61 60 60 59 60 60 60 62 63 63 63 63 65 66 65 64 65 65 65 64 63 63 63 63 62 62 62 60 60 59
63 64 63 63 63 64 63 62 61 62 62 63 63 60 60 60 61 61 61 62 61 61 61 62 61 66 65 65 64 64 64 63 63 63 64 63 62 62 62 60 59 59
63 63 64 64 64 64 63 63 62 62 63 62 61 62 63 62 61 61 61 61 62 62 61 62 65 64 63 63 64 65 64 63 63 63 63 62 62 61 61 60 60 60
64 64 64 64 63 62 61 62 61 62 62 62 63 63 62 63 63 62 62 62 61 61 63 64 64 64 66 65 65 65 64 64 64 63 63 62 62 62 61 60 59 59
64 63 64 63 63 62 63 62 62 63 63 63 63 63 63 63 64 63 61 60 59 60 59 61 64 64 64 62 63 64 64 63 63 63 64 63 63 61 60 60 60 59
62 63 63 63 63 62 62 62 63 63 63 63 63 63 64 64 63 63 62 62 61 60 60 63 64 65 61 61 61 61 62 63 63 63 64 63 62 62 61 60 60 59
63 63 63 63 63 62 62 63 63 63 63 63 63 64 64 64 64 63 62 62 62 61 62 64 64 64 60 59 59 59 60 61 62 62 62 62 62 62 62 61 60 60
63 63 63 62 63 63 63 63 63 62 63 63 63 64 64 64 64 63 62 62 62 61 62 63 63 63 60 58 58 58 59 60 61 61 62 62 62 62 62 61 61 61
63 63 63 63 63 63 63 63 63 63 63 64 63 63 63 63 62 61 61 61 62 64 63 63 64 61 59 58 57 56 57 59 59 60 61 61 62 62 62 61 61 61
63 63 63 63 63 64 63 63 63 63 63 63 64 63 64 63 63 63 62 61 61 62 62 62 63 60 58 57 56 55 57 59 59 60 60 61 62 62 62 61 61 61
63 63 63 63 64 63 63 63 63 63 63 64 64 64 63 63 61 60 61 61 60 60 60 60 61 58 55 55 55 55 57 59 60 61 61 62 62 62 61 61 61 61
64 63 63 64 64 63 63 63 63 63 64 65 64 64 63 62 61 59 62 62 61 60 61 60 60 59 55 54 54 55 58 58 58 60 61 61 61 61 61 62 62 64
64 64 63 63 63 63 63 63 63 63 63 64 64 64 63 61 61 62 62 61 62 62 62 62 62 59 54 53 53 53 56 59 60 60 61 61 61 61 61 62 62 63
65 64 63 63 63 63 64 63 63 63 63 63 64 63 62 60 60 62 62 61 60 62 62 62 63 62 62 55 53 53 55 59 60 60 60 61 60 61 61 60 60 60

ECMWFNIL_sfc_dewp_021.txt.gz
Dewpoint
61 63 62 61 61 62 63 63 63 62 62 62 61 60 63 65 65 65 65 65 66 65 65 65 66 66 66 64 65 64 64 64 64 63 63 64 64 63 63 63 63 63
61 63 65 62 63 65 64 63 63 62 62 62 61 62 63 64 65 65 64 65 66 65 64 64 65 65 64 64 64 63 63 63 63 66 64 63 64 63 63 63 62 62
62 63 63 61 62 64 63 63 63 62 62 62 62 63 63 65 64 65 64 64 65 65 64 64 64 65 65 64 63 63 64 62 62 63 65 64 63 63 63 63 62 62
62 62 62 62 63 63 63 63 62 62 62 62 62 63 64 65 65 64 64 69 64 64 64 63 64 64 64 64 63 63 63 63 63 63 63 63 63 63 63 62 63 62
62 62 63 62 63 64 63 62 62 62 62 62 62 63 65 65 64 63 64 64 64 63 63 64 64 64 64 64 63 63 63 63 63 62 62 62 62 63 63 63 62 62
62 63 63 63 63 63 63 62 62 62 62 61 61 64 64 64 64 63 63 62 63 64 63 63 63 63 63 63 63 63 63 63 63 62 62 62 62 63 63 62 62 62
62 62 63 62 62 62 63 62 63 63 62 61 62 63 64 64 63 63 62 63 63 64 63 62 63 62 63 63 62 63 63 62 63 62 62 63 63 62 63 63 63 62
62 62 63 63 62 62 63 62 62 63 62 62 61 62 63 64 63 63 63 63 62 62 62 62 62 62 62 63 63 63 63 64 63 63 62 63 62 62 62 63 62 61
62 62 63 63 62 62 63 62 62 62 62 61 61 61 63 62 63 63 63 63 62 62 62 62 62 62 62 62 63 63 62 63 64 64 63 63 62 62 62 62 61 61
62 62 63 63 62 63 63 62 61 61 63 62 62 62 62 63 63 62 62 62 62 62 62 62 62 62 62 62 62 62 62 63 63 63 63 63 63 63 63 62 61 61
63 62 62 63 62 62 62 62 61 61 62 62 62 62 62 62 63 63 62 62 62 62 62 62 62 62 62 62 63 63 63 63 63 62 63 63 63 63 64 63 62 61
62 63 62 62 62 62 62 62 62 62 62 63 63 62 62 62 62 62 63 62 62 62 62 62 62 62 62 62 62 63 63 63 63 63 63 62 62 63 63 63 62 62
63 63 63 62 63 62 62 62 62 62 61 61 63 62 61 61 61 61 63 62 62 62 62 62 62 62 61 61 62 62 63 63 63 62 63 63 63 63 63 62 62 62
64 63 63 63 63 63 63 63 62 62 62 62 62 61 60 59 60 60 60 63 61 61 61 62 61 60 60 61 62 62 62 62 62 62 62 62 62 62 62 62 62 61
63 63 63 63 64 63 63 63 63 63 63 62 62 61 61 59 59 59 59 61 60 61 61 61 61 60 61 61 62 62 62 62 62 62 62 62 61 61 61 61 61 61
63 63 63 63 63 63 63 63 62 63 63 62 61 61 60 60 59 60 59 59 60 60 61 61 61 61 63 63 63 62 62 62 62 62 61 61 61 61 61 61 61 61
63 63 64 63 63 63 63 63 63 63 63 62 61 60 60 60 60 60 60 60 60 60 60 61 61 61 62 61 62 64 63 62 61 62 61 61 61 60 60 61 61 61
64 64 64 63 63 63 64 64 64 63 62 62 61 60 60 61 61 60 61 61 61 61 61 61 61 62 60 60 61 62 63 64 62 61 61 61 60 60 60 60 60 61
63 64 64 63 63 65 64 64 63 62 62 61 60 60 60 60 61 61 61 61 61 61 61 62 62 62 60 59 60 60 60 62 62 62 61 61 60 60 60 60 60 60
63 63 64 64 65 64 64 63 63 62 62 61 60 61 60 60 61 61 61 61 62 62 62 62 61 61 59 59 58 59 59 61 61 60 60 60 60 60 60 59 59 59
64 64 64 64 64 64 63 63 63 62 61 61 60 60 60 60 61 61 62 63 63 63 61 61 61 60 59 59 58 57 58 60 59 59 59 59 59 59 59 59 59 59
64 64 64 64 63 63 62 62 62 62 61 61 61 61 61 61 61 62 62 62 62 62 61 60 60 59 58 57 57 56 58 60 58 58 58 58 57 57 58 58 59 59
64 64 64 63 63 61 61 61 62 62 61 62 61 61 61 61 61 62 63 62 62 61 60 60 60 59 56 55 55 56 57 57 56 57 57 57 57 57 58 58 59 59
64 64 63 63 62 61 61 61 62 61 61 63 61 61 61 61 62 62 61 61 61 61 61 60 59 59 56 54 54 55 57 56 56 56 56 56 56 57 57 58 59 63
64 63 62 61 60 60 60 61 61 61 62 63 62 61 61 62 63 61 60 60 60 61 63 62 60 58 56 55 54 54 56 56 56 56 55 55 56 57 58 58 58 59
63 62 60 59 58 59 61 61 62 62 62 62 63 63 62 60 61 60 59 59 61 61 61 61 60 60 61 57 54 52 54 57 56 55 56 56 57 58 58 56 55 55

ECMWFNIL_sfc_dewp_024.txt.gz
Dewpoint
68 67 65 64 62 63 63 63 64 64 64 63 63 63 65 66 67 67 67 67 67 67 66 67 68 68 68 67 67 67 67 66 66 65 65 67 66 66 66 65 65 65
67 66 66 64 63 64 64 64 64 64 63 64 63 63 64 66 66 66 66 66 68 67 67 67 67 68 67 67 66 66 66 67 66 67 65 65 66 66 65 65 65 65
66 65 65 63 62 63 63 64 64 64 63 63 63 63 63 66 66 66 66 66 66 67 66 66 66 67 67 67 66 66 66 65 65 65 67 66 66 65 66 65 65 65
65 65 64 63 62 63 64 64 64 64 63 63 63 63 64 66 66 66 66 68 66 66 66 66 66 66 66 66 66 66 65 65 65 65 65 66 66 66 65 65 65 65
64 64 64 63 63 64 64 63 63 63 63 63 63 64 66 66 66 65 65 66 66 65 65 65 65 65 66 66 66 66 66 65 65 65 65 64 65 65 65 65 65 65
64 64 64 63 63 64 63 63 63 63 63 63 63 65 65 65 65 65 65 65 65 65 65 65 65 65 65 65 65 65 65 65 65 65 64 64 64 65 65 65 65 64
64 63 63 63 64 64 63 63 63 64 63 63 64 63 64 64 65 65 65 65 64 65 65 65 65 64 65 65 65 65 65 65 65 65 64 64 65 65 65 65 65 65
64 63 63 63 63 63 63 63 63 64 63 64 63 63 64 64 64 64 65 64 64 64 64 64 64 64 64 64 64 64 64 65 65 65 64 65 65 64 65 65 65 65
64 63 63 63 63 63 63 63 63 63 64 63 62 62 64 64 64 64 65 64 64 64 64 64 64 64 64 64 64 64 64 64 65 65 65 65 65 65 65 65 64 64
63 63 62 62 62 62 62 62 62 63 64 63 62 62 62 64 64 64 64 64 64 64 64 64 64 64 64 64 64 64 64 64 64 64 65 65 65 65 65 65 64 64
63 63 63 63 62 62 62 62 62 62 63 63 62 62 62 63 64 64 64 64 63 63 63 64 63 64 64 64 64 64 64 64 63 64 64 65 65 65 65 65 65 64
63 63 63 63 63 63 63 62 62 62 62 63 62 61 62 62 62 63 63 63 63 63 63 63 63 64 64 64 63 64 64 64 64 64 64 64 64 64 65 65 65 65
64 64 65 64 65 64 64 63 62 62 61 62 63 62 61 62 62 62 63 63 63 63 63 63 63 63 63 63 63 64 64 64 64 64 64 64 64 64 64 64 64 64
66 64 65 65 65 64 63 63 63 62 62 62 63 63 62 62 62 62 62 63 63 63 63 64 63 63 63 63 64 63 64 64 64 64 64 64 64 64 64 64 64 64
65 65 64 64 64 63 63 63 63 63 63 63 63 63 63 62 62 62 62 62 63 63 63 63 63 62 63 63 63 63 64 63 64 64 64 64 64 64 64 64 64 64
65 65 64 64 63 63 63 63 63 63 63 63 63 64 63 63 62 62 60 60 61 62 62 62 62 63 64 63 62 63 62 63 64 64 64 64 64 64 63 63 63 63
65 65 64 64 64 64 63 63 63 64 64 64 64 63 63 63 62 61 60 60 60 60 61 61 62 62 62 60 61 63 64 63 63 64 64 64 64 63 63 63 63 63
65 64 64 64 65 64 64 64 64 64 64 64 63 63 63 62 62 61 61 60 60 60 60 61 62 62 60 60 61 61 63 65 64 64 63 63 63 63 63 63 63 62
64 63 64 63 64 65 64 64 64 64 63 63 62 63 63 62 62 61 61 61 61 61 61 61 62 61 60 60 60 60 60 62 64 64 64 63 63 63 63 63 62 62
62 61 61 62 64 65 64 64 64 63 63 63 64 63 62 62 61 61 61 61 61 62 62 62 62 61 59 59 58 58 59 61 63 63 64 63 63 63 62 62 62 62
61 60 61 61 63 64 64 64 64 63 62 62 62 62 62 62 62 61 61 62 62 63 62 62 62 60 58 58 57 57 58 60 63 63 63 63 62 62 62 61 61 61
61 60 61 61 63 64 64 64 62 61 58 57 60 62 62 62 62 61 61 62 63 63 62 62 62 59 58 57 57 57 58 62 62 62 62 62 61 61 61 61 61 61
61 61 61 61 63 63 63 62 61 59 58 62 62 62 61 61 61 61 63 62 62 63 62 62 63 60 57 56 56 56 58 62 61 61 61 60 60 60 60 60 60 61
62 61 61 62 62 63 63 63 61 59 61 63 62 62 61 61 61 62 63 63 63 62 62 62 62 61 56 54 54 55 59 60 60 60 60 60 60 59 60 60 60 61
62 62 62 62 63 63 63 62 61 61 62 63 62 62 62 62 63 62 63 63 63 63 63 63 63 61 55 54 53 54 58 60 60 60 59 60 59 59 59 60 60 60
63 63 62 63 63 63 63 62 61 62 62 62 63 63 63 62 63 63 62 63 62 63 63 64 64 63 62 55 54 52 54 61 60 59 59 59 59 58 59 59 59 58

ECMWFNIL_sfc_dewp_027.txt.gz
Dewpoint
75 75 74 73 73 72 72 70 69 69 70 69 68 68 68 69 70 71 70 71 71 69 69 70 70 70 69 69 69 69 69 68 68 68 67 67 67 66 66 66 66 66
75 75 74 74 73 72 71 71 70 69 69 70 69 69 70 70 70 70 70 70 70 69 70 69 70 70 69 68 69 69 69 69 68 68 68 68 67 66 66 66 65 66
75 74 74 73 71 71 69 70 70 69 69 69 70 70 70 70 70 71 70 69 69 68 69 69 69 70 69 69 69 69 68 68 68 67 68 68 67 67 66 64 65 65
75 74 73 72 71 70 70 69 69 69 69 69 69 68 68 69 70 70 70 70 69 69 68 69 69 68 69 69 69 68 68 68 67 68 68 68 68 67 66 66 65 65
74 74 73 72 71 71 70 69 67 68 68 68 69 69 69 70 69 69 69 69 69 68 69 69 69 69 69 69 69 68 68 67 67 68 68 67 67 67 66 66 66 65
74 74 73 72 71 70 69 68 68 67 67 68 68 68 68 69 69 68 68 68 67 67 67 67 68 68 68 68 69 68 67 66 66 68 67 67 65 65 66 67 67 66
73 73 72 71 69 69 69 69 68 68 68 68 69 68 68 68 69 69 69 69 68 68 67 68 69 68 69 69 69 68 68 68 67 68 68 66 67 66 67 68 68 67
72 71 71 70 69 68 68 68 68 68 69 69 68 69 68 67 68 68 69 69 68 68 69 69 69 69 67 68 68 67 67 67 67 68 68 67 67 67 68 68 68 67
71 70 70 69 68 68 66 66 66 68 69 68 67 66 68 68 68 68 69 69 68 68 69 69 69 69 68 68 67 67 67 65 65 66 66 66 66 67 66 66 66 66
71 69 68 67 66 67 65 64 64 67 67 67 67 66 66 67 68 68 68 69 68 68 69 68 68 68 68 68 68 68 67 67 67 68 67 67 66 66 65 65 64 64
70 68 68 67 67 65 65 63 63 64 66 65 66 65 66 67 67 67 68 68 67 68 68 68 68 67 68 68 68 68 68 67 67 67 67 66 66 67 66 66 65 65
70 68 67 67 67 65 64 64 64 65 65 65 66 64 65 65 66 66 67 67 67 68 68 68 68 68 68 68 67 67 67 67 66 66 66 67 67 67 67 67 67 66
70 68 67 67 67 67 66 66 64 64 64 64 64 64 63 64 64 66 66 66 67 67 67 67 67 67 68 68 68 67 67 67 66 67 67 67 67 66 65 66 66 66
69 68 69 68 68 68 68 68 67 66 66 65 65 64 63 64 64 65 65 65 66 67 67 67 67 67 67 67 67 67 67 67 67 68 67 67 67 66 66 65 65 65
70 68 69 69 69 68 67 67 66 67 66 66 66 65 65 64 64 65 65 66 67 67 66 66 66 66 66 67 67 67 68 67 67 67 66 66 66 65 66 67 66 66
69 69 68 69 68 67 67 68 67 66 65 65 65 66 65 65 65 66 64 65 65 66 66 66 66 66 65 63 64 67 68 67 67 67 66 66 66 66 65 66 66 65
69 68 68 68 69 68 67 67 66 65 65 65 65 65 66 66 67 65 63 64 64 64 65 65 65 66 63 61 61 63 66 66 66 66 67 66 66 66 65 65 65 67
68 68 67 67 68 66 65 64 65 66 65 65 65 66 66 67 66 65 65 64 63 63 63 64 65 63 60 60 61 61 63 66 66 66 66 66 66 66 66 65 65 65
68 68 67 67 67 66 64 64 64 64 64 65 65 66 67 67 67 66 65 65 64 64 63 63 64 62 60 59 60 60 61 63 66 67 66 66 66 67 66 66 66 66
68 68 67 67 66 66 65 66 64 63 62 63 65 66 66 66 65 66 65 65 64 65 65 64 64 62 59 58 58 59 60 62 65 66 67 66 66 66 66 66 66 66
67 67 67 66 66 65 66 65 64 62 62 63 64 65 66 66 65 64 64 64 64 64 64 64 64 60 58 57 57 57 58 61 65 67 66 66 67 67 67 66 66 66
67 67 67 65 65 64 62 63 64 62 62 63 64 65 66 65 65 64 64 64 64 64 64 64 63 59 58 57 57 57 59 64 66 67 66 66 66 65 66 66 66 65
67 67 66 64 63 62 62 61 62 63 64 65 64 65 65 65 65 64 66 65 65 66 65 65 65 61 57 56 56 56 58 65 67 66 66 66 65 65 65 65 65 64
66 66 65 64 63 62 61 61 63 63 63 65 65 65 64 64 64 65 66 66 65 65 63 65 65 63 56 55 55 56 60 66 66 65 65 65 64 64 65 65 64 62
65 66 66 64 63 63 62 63 63 63 65 65 64 64 64 64 63 63 64 65 64 64 64 64 64 62 55 54 54 55 60 66 65 63 63 63 62 63 64 63 63 62
65 66 65 64 63 62 62 62 62 63 64 64 64 64 64 63 63 62 64 65 65 65 65 64 65 67 65 54 53 53 56 65 64 63 62 62 63 63 62 63 62 62

ECMWFNIL_sfc_dewp_030.txt.gz
Dewpoint
77 77 76 75 75 74 74 74 73 73 73 71 70 70 68 69 69 68 68 68 68 68 68 69 69 69 68 68 68 68 67 68 68 67 67 66 66 65 65 65 65 65
77 77 76 76 76 75 75 74 74 74 74 73 71 70 70 70 69 68 68 67 68 68 69 68 69 69 69 67 68 67 67 67 68 67 67 67 66 66 65 65 64 64
77 77 77 76 75 75 74 75 75 74 73 73 72 71 70 70 69 69 68 68 68 68 68 69 69 69 68 68 68 67 66 67 67 67 67 66 65 65 65 62 63 63
78 77 76 76 75 75 76 75 75 75 74 72 71 70 70 69 68 68 68 68 68 68 68 68 68 68 68 68 68 66 67 67 67 67 66 66 66 65 64 64 63 63
77 77 77 76 75 76 76 75 74 74 73 72 72 71 70 69 68 67 67 68 68 67 68 68 68 67 68 68 67 67 67 66 66 67 66 65 66 65 64 64 64 62
78 77 77 76 76 76 75 74 74 73 73 71 71 70 69 69 67 66 67 67 66 66 66 66 67 67 67 67 67 67 66 65 65 66 65 65 64 63 63 63 63 63
77 77 77 76 76 74 74 74 74 74 72 71 71 69 68 67 67 67 68 68 67 67 66 67 67 66 67 67 67 67 67 66 66 66 65 64 64 64 63 63 64 64
77 77 76 75 74 74 74 73 74 73 73 72 70 70 68 66 67 67 68 68 66 67 67 67 67 68 66 66 67 66 66 65 65 65 65 64 64 64 64 63 64 65
77 76 75 75 73 73 71 72 72 73 72 71 69 68 69 67 67 67 69 68 67 68 68 66 67 67 66 65 65 65 65 64 64 64 64 64 63 63 63 64 64 64
76 75 74 72 71 71 71 71 71 72 71 70 68 66 67 67 68 69 70 70 67 66 66 66 66 66 66 66 66 65 65 65 65 65 64 64 63 64 63 63 63 63
75 74 73 72 71 70 71 70 69 70 70 69 68 66 67 68 69 70 70 69 65 66 66 66 67 66 67 65 65 66 65 65 65 65 65 65 65 65 64 64 63 62
75 74 72 72 72 71 71 70 70 71 69 68 67 65 67 67 69 67 67 67 66 66 66 66 67 67 67 66 64 64 65 65 64 65 65 65 65 64 64 64 64 63
75 73 72 72 72 72 72 70 69 68 67 67 65 64 64 63 63 66 67 66 66 66 67 67 67 67 67 67 67 66 66 67 66 66 66 66 65 63 62 62 62 63
74 73 73 72 72 73 72 71 70 69 69 67 65 64 60 61 63 64 66 67 67 66 66 67 67 67 69 69 67 67 67 67 67 66 65 65 64 64 62 61 60 60
75 74 73 73 72 72 72 71 70 70 69 67 67 65 63 63 63 65 67 67 67 66 66 66 67 67 67 67 67 67 67 65 66 64 65 64 63 63 63 63 62 61
74 74 73 72 72 72 72 72 70 70 69 70 69 66 64 63 64 66 65 65 66 66 66 67 67 67 66 64 65 66 65 65 63 65 65 64 63 63 63 62 62 62
74 74 73 72 72 72 73 72 71 70 70 69 69 68 66 67 66 65 62 63 62 64 67 67 67 67 63 61 61 63 65 65 64 65 65 64 64 64 64 63 62 62
74 74 73 72 72 71 72 72 71 71 70 70 68 66 66 65 65 65 64 61 61 63 66 66 67 64 61 61 61 61 63 66 64 64 64 64 64 64 64 65 65 64
73 73 72 72 72 71 72 71 71 70 69 69 67 67 67 66 65 65 65 65 66 67 66 66 66 62 60 60 60 60 61 63 64 63 63 63 65 66 66 67 67 67
73 72 72 72 71 71 71 70 70 69 69 68 67 68 67 65 64 65 66 66 67 67 66 65 64 62 59 59 59 59 60 62 64 63 63 63 65 66 66 67 67 68
72 72 72 71 71 71 71 70 69 70 69 67 66 65 65 65 64 66 66 67 66 66 66 64 62 59 58 58 57 57 58 61 65 64 64 64 65 66 67 68 68 67
72 72 72 71 71 70 70 70 70 69 69 68 66 65 65 68 67 63 65 66 66 65 63 63 58 58 57 57 56 56 58 64 65 65 65 65 65 66 67 68 67 66
72 71 71 71 71 70 69 69 70 69 68 67 66 65 63 62 60 61 66 64 61 62 64 63 59 60 56 56 56 56 58 64 65 64 64 65 65 66 67 66 66 66
72 71 71 70 70 69 69 69 69 68 66 65 63 62 61 62 62 63 64 61 58 60 61 62 60 59 55 55 55 55 60 64 65 65 65 65 66 67 67 66 65 64
71 71 71 70 70 69 68 69 69 68 64 62 60 59 60 61 60 63 62 60 60 59 64 62 59 59 55 55 54 55 60 65 65 66 66 66 66 66 65 64 65 66
71 71 71 70 70 70 70 69 68 66 63 61 60 59 57 58 60 61 61 61 60 61 60 62 62 62 68 54 53 54 57 65 66 66 65 66 65 63 62 65 66 66